Effective Sunday, March 17, 2024, the National Weather Service National Data Buoy Center will discontinue its Dial-A-Buoy Interactive Voice Response system. For more information, see Service Change Notice 24-06 (PDF).

Station TLVT2 - 8775285 - Tule Lake Visibility, TX Image indicating link to RSS feed of recent meteorological observations for station TLVT2


Conditions at TLVT2 as of
(4:30 am CST)
1030 GMT on 02/25/2024:
     

Click on the graph icon in the table below to see a time series plot of the last five days of that observation.

5-day plot - Atmospheric Pressure Atmospheric Pressure (PRES):30.05 in
5-day plot - Air Temperature Air Temperature (ATMP): 63.9 °F
5-day plot - Dew Point Dew Point (DEWP): 61.9 °F
5-day plot - Visibility Visibility (VIS): 5.9 nmi
NOS Water Level Observation Network Water Level
Previous observations
TIME
(CST)
5-day plot - Wind Direction
WDIR
 
5-day plot - Wind Speed
WSPD
kts
5-day plot - Wind Gust
GST
kts
5-day plot - Wave Height
WVHT
ft
5-day plot - Dominant Wave Period
DPD
sec
5-day plot - Average Wave Period
APD
sec
5-day plot - Mean Wave Direction
MWD
 
5-day plot - Atmospheric Pressure
PRES
in
5-day plot - Pressure Tendency
PTDY
in
5-day plot - Air Temperature
ATMP
°F
5-day plot - Water Temperature
WTMP
°F
5-day plot - Dew Point
DEWP
°F
5-day plot - Salinity
SAL
psu
5-day plot - Visibility
VIS
nmi
5-day plot - Tide (above MLLW)
TIDE
ft
2024-02-25 04:24 am-------30.05- 63.9- 61.7- 5.9-
2024-02-25 04:18 am-------30.05- 63.9- 61.7- 5.9-
2024-02-25 04:12 am-------30.05- 64.0- 61.7- 5.9-
2024-02-25 04:06 am-------30.05- 64.0- 61.5- 5.9-
2024-02-25 04:00 am-------30.06-0.04 64.0- 61.3- 5.9-
2024-02-25 03:54 am-------30.06- 64.2- 61.5- 5.9-
2024-02-25 03:48 am-------30.06- 64.2- 61.5- 5.9-
2024-02-25 03:42 am-------30.06- 64.4- 61.5- 5.9-
2024-02-25 03:36 am-------30.06- 64.2- 61.2- 5.9-
2024-02-25 03:30 am-------30.07- 64.4- 61.2- 5.9-
2024-02-25 03:24 am-------30.07- 64.4- 61.2- 5.9-
2024-02-25 03:18 am-------30.07- 64.4- 61.0- 5.9-
2024-02-25 03:12 am-------30.06- 64.6- 61.0- 5.9-
2024-02-25 03:06 am-------30.06- 64.6- 61.0- 5.9-
2024-02-25 03:00 am-------30.07-0.04---- 5.9-
2024-02-25 02:54 am-------30.07----- 5.9-
2024-02-25 02:48 am-------30.06- 64.4- 60.8- 5.9-
2024-02-25 02:42 am-------30.06- 64.2- 60.6- 5.9-
2024-02-25 02:36 am-------30.07- 64.0- 60.6- 5.9-
2024-02-25 02:30 am-------30.07- 64.0- 60.6- 5.9-
2024-02-25 02:24 am-------30.08- 63.9- 60.4- 5.9-
2024-02-25 02:18 am-------30.08- 64.0- 60.3- 5.9-
2024-02-25 02:12 am-------30.08- 64.2- 60.4- 5.9-
2024-02-25 02:06 am-------30.08- 64.0- 60.3- 5.9-
2024-02-25 02:00 am-------30.09-0.04 63.9- 60.3- 5.9-
2024-02-25 01:54 am-------30.09- 63.9- 60.3- 5.9-
2024-02-25 01:48 am-------30.09- 63.7- 60.1- 5.9-
2024-02-25 01:42 am-------30.09- 63.7- 60.1- 5.9-
2024-02-25 01:36 am-------30.09- 63.5- 60.1- 5.9-
2024-02-25 01:30 am-------30.09- 63.5- 60.1- 5.9-
2024-02-25 01:24 am-------30.09- 63.7- 60.3- 5.9-
2024-02-25 01:18 am-------30.09- 63.5- 60.3- 5.9-
2024-02-25 01:12 am-------30.09- 63.7- 60.3- 5.9-
2024-02-25 01:06 am-------30.09- 64.0- 60.3- 5.9-
2024-02-25 01:00 am-------30.09-0.03 64.0- 60.3- 5.9-
2024-02-25 12:54 am-------30.09- 64.4- 60.4- 5.9-
2024-02-25 12:48 am-------30.09- 64.2- 60.4- 5.9-
2024-02-25 12:42 am-------30.09- 63.9- 60.3- 5.9-
2024-02-25 12:36 am-------30.09- 64.2- 60.4- 5.9-
2024-02-25 12:30 am-------30.10- 64.2- 60.4- 5.9-
2024-02-25 12:24 am-------30.10- 64.4- 60.3- 5.9-
2024-02-25 12:18 am-------30.10- 64.6- 60.4- 5.9-
2024-02-25 12:12 am-------30.10- 64.4- 60.3- 5.9-
2024-02-25 12:06 am-------30.10- 64.9- 60.3- 5.9-
2024-02-25 12:00 am-------30.11-0.03 64.8- 60.3- 5.9-
2024-02-24 11:54 pm-------30.11- 65.1- 60.3- 5.9-
2024-02-24 11:48 pm-------30.11- 65.3- 60.3- 5.9-
2024-02-24 11:42 pm-------30.11- 65.5- 60.3- 5.9-
2024-02-24 11:36 pm-------30.11- 65.3- 60.3- 5.9-
2024-02-24 11:30 pm-------30.11- 65.3- 60.3- 5.9-
2024-02-24 11:24 pm-------30.11- 65.5- 60.3- 5.9-
2024-02-24 11:18 pm-------30.11- 65.5- 60.1- 5.9-
2024-02-24 11:12 pm-------30.12- 65.7- 60.3- 5.9-
2024-02-24 11:06 pm-------30.12- 65.8- 60.1- 5.9-
2024-02-24 11:00 pm-------30.12+0.00 66.0- 59.9- 5.9-
2024-02-24 10:54 pm-------30.13- 66.2- 60.1- 5.9-
2024-02-24 10:48 pm-------30.13----- 5.9-
2024-02-24 10:42 pm-------30.13----- 5.9-
2024-02-24 10:36 pm-------30.13----- 5.9-
2024-02-24 10:30 pm-------30.12- 65.8- 60.1- 5.9-
2024-02-24 10:24 pm-------30.12- 65.7- 60.1- 5.9-
2024-02-24 10:18 pm-------30.12- 65.7- 60.1- 5.9-
2024-02-24 10:12 pm-------30.12- 65.8- 60.3- 5.9-
2024-02-24 10:06 pm-------30.12- 65.8- 60.1- 5.9-
2024-02-24 10:00 pm-------30.12+0.01 65.8- 60.1- 5.9-
2024-02-24 09:54 pm-------30.13- 65.8- 60.1- 5.9-
2024-02-24 09:48 pm-------30.13- 65.7- 59.9- 5.9-
2024-02-24 09:42 pm-------30.13- 65.7- 60.1- 5.9-
2024-02-24 09:36 pm-------30.13- 65.7- 60.1- 5.9-
2024-02-24 09:30 pm-------30.13- 65.8- 60.1- 5.9-
2024-02-24 09:24 pm-------30.14- 66.0- 60.1- 5.9-
2024-02-24 09:18 pm--------- 66.2- 60.1- 5.9-
2024-02-24 09:12 pm--------- 66.2- 59.7- 5.9-
2024-02-24 09:06 pm--------- 66.2- 59.5- 5.9-
2024-02-24 09:00 pm-------30.13+0.02 66.4--- 5.9-
2024-02-24 08:54 pm-------30.13- 66.4--- 5.9-
2024-02-24 08:48 pm-------30.13- 66.6- 59.5- 5.9-
2024-02-24 08:42 pm-------30.12- 66.6- 59.4- 5.9-
2024-02-24 08:36 pm-------30.12- 66.7- 59.4- 5.9-
2024-02-24 08:30 pm-------30.12- 66.7- 59.4- 5.9-
2024-02-24 08:24 pm-------30.12- 66.7- 59.0- 5.9-
2024-02-24 08:18 pm-------30.12----- 5.9-
2024-02-24 08:12 pm-------30.12----- 5.9-
2024-02-24 08:06 pm-------30.12----- 5.9-
2024-02-24 08:00 pm-------30.12+0.01---- 5.9-
2024-02-24 07:54 pm-------30.12----- 5.9-
2024-02-24 07:48 pm-------30.12----- 5.9-
2024-02-24 07:42 pm-------30.11----- 5.9-
2024-02-24 07:36 pm-------30.11----- 5.9-
2024-02-24 07:30 pm-------30.11- 68.0- 57.6- 5.9-
2024-02-24 07:24 pm-------30.11- 68.0- 57.4- 5.9-
2024-02-24 07:18 pm-------30.11- 68.4- 57.0- 5.9-
2024-02-24 07:12 pm-------30.11- 68.4- 56.7- 5.9-
2024-02-24 07:06 pm-------30.11- 68.7- 56.7- 5.9-
2024-02-24 07:00 pm-------30.11+0.00---- 5.9-
2024-02-24 06:54 pm-------30.11----- 5.9-
2024-02-24 06:48 pm-------30.11----- 5.9-
2024-02-24 06:42 pm-------30.11----- 5.9-
2024-02-24 06:36 pm-------30.11----- 5.9-
2024-02-24 06:30 pm-------30.11----- 5.9-
2024-02-24 06:24 pm-------30.11----- 5.9-
2024-02-24 06:18 pm-------30.11- 70.5- 51.3- 5.9-
2024-02-24 06:12 pm-------30.11- 70.9- 48.9- 5.9-
2024-02-24 06:06 pm-------30.11- 71.2- 48.6- 5.9-
2024-02-24 06:00 pm-------30.11+0.00 71.4- 47.8- 5.9-
2024-02-24 05:54 pm-------30.11- 71.6- 46.8- 5.9-
2024-02-24 05:48 pm-------30.11- 71.8- 46.9- 5.9-
2024-02-24 05:42 pm-------30.11- 72.0- 47.8- 5.9-
2024-02-24 05:36 pm-------30.11- 72.3- 46.8- 5.9-
2024-02-24 05:30 pm-------30.11----- 5.9-
2024-02-24 05:24 pm-------30.11----- 5.9-
2024-02-24 05:18 pm-------30.11- 72.9- 46.2- 5.9-
2024-02-24 05:12 pm-------30.11- 72.9- 45.7- 5.9-
2024-02-24 05:06 pm-------30.11- 73.0- 44.1- 5.9-
2024-02-24 05:00 pm-------30.11-0.03 73.4- 45.7- 5.9-
2024-02-24 04:54 pm-------30.11- 73.4- 45.0- 5.9-
2024-02-24 04:48 pm-------30.11- 73.2- 47.3- 5.9-
2024-02-24 04:42 pm-------30.11- 73.4- 44.6- 5.9-
2024-02-24 04:36 pm-------30.11- 73.6- 44.2- 5.9-
2024-02-24 04:30 pm-------30.11- 73.8- 43.7- 5.9-
2024-02-24 04:24 pm-------30.11- 73.6- 43.9- 5.9-
2024-02-24 04:18 pm-------30.12----- 5.9-
2024-02-24 04:12 pm-------30.12----- 5.9-
2024-02-24 04:06 pm-------30.12----- 5.9-
2024-02-24 04:00 pm-------30.11-0.04---- 5.9-
2024-02-24 03:54 pm-------30.11----- 5.9-
2024-02-24 03:48 pm-------30.11- 73.8- 46.4- 5.9-
2024-02-24 03:42 pm-------30.11- 74.1- 42.4- 5.9-
2024-02-24 03:36 pm-------30.12- 74.3- 41.4- 5.9-
2024-02-24 03:30 pm-------30.12- 74.5- 46.9- 5.9-
2024-02-24 03:24 pm-------30.12- 74.1- 47.8- 5.9-
2024-02-24 03:18 pm-------30.11- 73.8- 45.9- 5.9-
2024-02-24 03:12 pm-------30.11- 74.5- 46.2- 5.9-
2024-02-24 03:06 pm-------30.12- 74.1- 45.7- 5.9-
2024-02-24 03:00 pm-------30.12-0.07 74.1- 47.7- 5.9-
2024-02-24 02:54 pm-------30.12- 73.9- 47.1- 5.9-
2024-02-24 02:48 pm-------30.12----- 5.9-
2024-02-24 02:42 pm-------30.12----- 5.9-
2024-02-24 02:36 pm-------30.12----- 5.9-
2024-02-24 02:30 pm--------- 74.3- 46.4- 5.9-
2024-02-24 02:24 pm--------- 74.5- 46.8- 5.9-
2024-02-24 02:18 pm-------30.13- 74.7- 47.7- 5.9-
2024-02-24 02:12 pm-------30.13- 73.9- 46.8- 5.9-
2024-02-24 02:06 pm-------30.14- 74.1- 45.5- 5.9-
2024-02-24 02:00 pm-------30.14-0.06 74.3- 44.8- 5.9-
2024-02-24 01:54 pm-------30.14- 74.1- 43.0- 5.9-
2024-02-24 01:48 pm-------30.14- 74.1- 45.1- 5.9-
2024-02-24 01:42 pm-------30.14- 74.3- 44.8- 5.9-
2024-02-24 01:36 pm-------30.14- 74.5- 43.5- 5.9-
2024-02-24 01:30 pm-------30.14- 74.5- 44.1- 5.9-
2024-02-24 01:24 pm-------30.15- 74.1- 43.2- 5.9-
2024-02-24 01:18 pm-------30.15- 73.6- 45.3- 5.9-
2024-02-24 01:12 pm-------30.16- 73.2- 47.1- 5.9-
2024-02-24 01:06 pm-------30.16- 73.6- 45.9- 5.9-
2024-02-24 01:00 pm-------30.16-0.04---- 5.9-
2024-02-24 12:54 pm-------30.16----- 5.9-
2024-02-24 12:48 pm-------30.16- 73.4- 45.9- 5.9-
2024-02-24 12:42 pm-------30.17- 73.4- 47.3- 5.9-
2024-02-24 12:36 pm-------30.17- 73.0- 45.9- 5.9-
2024-02-24 12:30 pm-------30.18- 73.4- 47.1- 5.9-
2024-02-24 12:24 pm-------30.18- 73.2- 46.2- 5.9-
2024-02-24 12:18 pm-------30.18- 73.2- 45.7- 5.9-
2024-02-24 12:12 pm-------30.18- 73.2- 45.3- 5.9-
2024-02-24 12:06 pm-------30.18- 73.4- 44.8- 5.9-
2024-02-24 12:00 pm-------30.19----- 5.9-
2024-02-24 11:54 am-------30.19----- 5.9-
2024-02-24 11:48 am-------30.19----- 5.9-
2024-02-24 11:42 am-------30.19----- 5.9-
2024-02-24 11:36 am-------30.19----- 5.9-
2024-02-24 11:30 am-------30.20- 72.9- 44.6- 5.9-
2024-02-24 11:24 am-------30.19- 73.4- 42.6- 5.9-
2024-02-24 11:18 am-------30.19- 73.6- 46.2- 5.9-
2024-02-24 11:12 am-------30.20- 73.6- 46.2- 5.9-
2024-02-24 11:06 am-------30.20- 73.4- 43.0- 5.9-
2024-02-24 11:00 am-------30.20+0.03 73.4- 43.5- 5.9-
2024-02-24 10:54 am-------30.20- 73.6- 41.9- 5.9-
2024-02-24 10:48 am-------30.21----- 5.9-
2024-02-24 10:42 am-------30.21----- 5.9-
2024-02-24 10:36 am-------30.21----- 5.9-
2024-02-24 10:30 am-------30.21----- 5.9-
2024-02-24 10:24 am-------30.21----- 5.9-
2024-02-24 10:18 am--------- 72.7- 43.0- 5.9-
2024-02-24 10:12 am--------- 72.9- 40.5- 5.9-
2024-02-24 10:06 am--------- 72.5- 43.2- 5.9-
2024-02-24 10:00 am-------30.20----- 5.9-
2024-02-24 09:54 am-------30.20----- 5.9-
2024-02-24 09:48 am-------30.20----- 5.9-
2024-02-24 09:42 am-------30.20----- 5.9-
2024-02-24 09:36 am-------30.20----- 5.9-
2024-02-24 09:30 am-------30.20- 69.8- 46.9- 5.9-
2024-02-24 09:24 am-------30.20- 69.4- 48.2- 5.9-
2024-02-24 09:18 am-------30.19- 69.3- 48.2- 5.9-
2024-02-24 09:12 am-------30.19- 68.9- 49.1- 5.9-
2024-02-24 09:06 am-------30.19- 68.9- 49.3- 5.9-
2024-02-24 08:48 am-------30.19----- 5.9-
2024-02-24 08:42 am-------30.19----- 5.9-
2024-02-24 08:36 am-------30.19----- 5.9-
2024-02-24 08:30 am-------30.18- 67.5- 50.4- 5.9-
2024-02-24 08:24 am-------30.18- 66.6- 52.2- 5.9-
2024-02-24 08:18 am-------30.18- 66.2- 52.7- 5.9-
2024-02-24 08:12 am-------30.18- 65.8- 52.9- 5.9-
2024-02-24 08:06 am-------30.17- 65.1- 53.2- 5.9-
2024-02-24 08:00 am-------30.17+0.05 64.8- 54.3- 5.9-
2024-02-24 07:54 am-------30.17- 64.4- 54.5- 5.9-
2024-02-24 07:30 am-------30.16----- 5.9-
2024-02-24 07:24 am-------30.16----- 5.9-
2024-02-24 07:18 am-------30.16----- 5.9-
2024-02-24 07:12 am-------30.15----- 5.9-
2024-02-24 07:06 am-------30.15----- 5.9-
2024-02-24 07:00 am--------- 61.2- 55.4- 5.9-
2024-02-24 06:54 am--------- 61.3- 55.4- 5.9-
2024-02-24 06:48 am-------30.15- 61.3- 55.4- 5.9-
2024-02-24 06:42 am-------30.15- 61.7- 55.4- 5.9-
2024-02-24 06:36 am-------30.14- 61.7- 55.2- 5.9-
2024-02-24 06:30 am-------30.14-------
2024-02-24 06:24 am-------30.14-------
2024-02-24 06:18 am-------30.14----- 5.9-
2024-02-24 06:12 am-------30.14----- 5.9-
2024-02-24 06:06 am-------30.14----- 5.9-
2024-02-24 06:00 am-------30.14+0.04 61.5- 54.5- 5.9-
2024-02-24 05:54 am-------30.14- 61.9- 54.5- 5.9-
2024-02-24 05:48 am-------30.14----- 5.9-
2024-02-24 05:42 am-------30.13----- 5.9-
2024-02-24 05:36 am-------30.13----- 5.9-
2024-02-24 05:30 am-------30.13- 61.5- 53.1- 5.9-
2024-02-24 05:24 am-------30.13- 61.3- 52.7- 5.9-
2024-02-24 05:18 am-------30.13- 61.2- 52.9- 5.9-
2024-02-24 05:12 am-------30.13- 61.5- 53.2- 5.9-
2024-02-24 05:06 am-------30.13- 61.5- 53.1- 5.9-
2024-02-24 05:00 am-------30.12----- 5.9-
2024-02-24 04:54 am-------30.12----- 5.9-